STARLINK-34675, 64809

Orbit data source: Space-Track

STARLINK-34675, 64809 is a payload satellite owned by SpaceX/Seattle (US) in LEO that was launched on Wed, 16 Jul 2025 UTC via an FALCON 9 launch vehicle from the Air Force Western Test Range (AFWTR). Payload-class satellites include a variety of spacecraft equipped with specific instruments for various scientific and technological missions. These include communications satellites like Starlink; space stations such as the ISS; scientific satellites like the Hubble; Earth observation satellites from companies like Planet Labs, Umbra, and HawkEye 360; GPS; miniature CubeSats for education and research; and military/defense satellites.

Loading next visibility...
Identifier
64809, 2025-150V
Orbit
LEO
Country
Flag of USUS
Related business
Manufacturer
SpaceX/Seattle
Mission
Operational Commercial Communications
Bus & Motor
STARLINK V2MO, Unknown motor
Mass
575 kg wet, ~530 kg dry
Launch date (UTC)
2025-07-16 (11 months ago)
Launch vehicle
FALCON 9
Launch site
Air Force Western Test Range (AFWTR)
Object type
Payload
Rocket body
Debris
Shape & HBR
Box + 2 Pan, 17.7 m
Radar Cross Section
36.964 m², Large (>1 m²)

Expand to show TLE details & history
Last TLE update: 10 hours ago

TLE from 10 hours ago
0 STARLINK-34675
1 64809U 25150V   26171.40979689  .00002287  00000-0  19934-3 0  9997
2 64809  70.0002 235.4448 0003804 268.4155  91.6569 14.98336518 51903
Epoch: 2026-06-20T09:50Z
TLE epoch observation values (Epoch: 2026-06-20T09:50:06.451Z)
Latitude
0.00005°
Longitude
179.29311°
Altitude
574.537 km
Speed
7.574 km/s
True Right ascension
15h 41m 46s
True Declination
0° 00' 00"
Sunlit
Object was in full shadow at epoch
Visualization orbit readout
Latitude
Unknown
Longitude
Unknown
Altitude
Unknown
Speed
Unknown
Apparent Right ascension
Unknown
Apparent Declination
Unknown
Sunlit
N/A
Visualization observer readout
Local Sidereal Time
07:11:40
Azimuth
Unknown
Elevation
Unknown
Doppler factor
Unknown
Orbital elements
Apogee altitude
572.627 km
Perigee altitude
567.341 km
Semi-major axis
6,948.121 km
Eccentricity
0.00038
Inclination
70.0002°
RAAN
235.4448°
Arg. of periapsis
268.4155°
True anomaly
91.70047°
Mean anomaly
91.6569°
Eccentric anomaly
91.67869°
Mean motion
3.7475 °/min
Orbital period
96.06 mins
BSTAR
0.00019934
Loading maneuver chart data...
Computing Atmospheric mass density...
Loading historical data...
Loading historical data...
Loading historical data...
Loading historical data...
Loading historical data...
Loading historical data...
Loading historical data...

Documentation

Showing up to 5 results
|